Home > Weather > Worcester > Past weeks

Flag for USA Past Weather in Worcester, Massachusetts, USA — Yesterday and Last 2 Weeks

Now
81 °F

Scattered clouds.


Feels Like: 81 °F
Forecast: 66 / 86 °F
Wind: No wind

Location: Worcester Regional Airport

Current Time: Jul 30, 2016 at 6:52:48 PM

Latest Report: Jul 30, 2016 at 5:54 PM


Visibility: 10 mi

Pressure: 30.02 "Hg

Humidity: 45%

Dew Point: 58 °F

Location of WorcesterLocation

Past Weather in Worcester — Graph

°F

Worcester Temperature Yesterday

Maximum temperature yesterday: 83 °F (at 3:54 PM)
Minimum temperature yesterday: 68 °F (at 11:54 PM)
Average temperature yesterday: 74 °F

High & Low Weather Summary for the Past Weeks

 TemperatureHumidityPressure
High92 °F (Jul 22, 4:54 PM)93% (Jul 29, 9:54 AM)30.24 "Hg (Jul 29, 9:54 AM)
Low57 °F (Jul 20, 2:54 AM)29% (Jul 21, 2:54 PM)29.76 "Hg (Jul 22, 6:54 PM)
Average75 °F59%29.97 "Hg
* Reported Jul 15 4:54 PM — Jul 30 4:54 PM, Worcester, Weather by CustomWeather, © 2016

Note: Actual official high and low records may vary slightly from our data, if they occured in-between our weather recording intervals... More about our weather records

Advertising

Worcester Weather History for the Previous 24 Hours

Scroll right to see more
 ConditionsComfort  
Time TempWeatherWind HumidityBarometerVisibility
4:54 PM
Sat, Jul 30
81 °FPartly sunny.5 mph45%30.01 "Hg10 mi
3:54 PM82 °FSunny.6 mph44%30.02 "Hg10 mi
2:54 PM79 °FPartly sunny.7 mph48%30.04 "Hg10 mi
1:54 PM80 °FPartly sunny.5 mph44%30.05 "Hg10 mi
12:54 PM78 °FMostly cloudy.7 mph48%30.06 "Hg10 mi
11:54 AM78 °FScattered clouds.No wind46%30.05 "Hg10 mi
10:54 AM76 °FSunny.5 mph50%30.06 "Hg10 mi
9:54 AM73 °FSunny.8 mph51%30.05 "Hg10 mi
8:54 AM71 °FSunny.6 mph57%30.05 "Hg10 mi
7:54 AM70 °FSunny.8 mph57%30.03 "Hg10 mi
6:54 AM69 °FSunny.8 mph59%30.01 "Hg10 mi
5:54 AM68 °FClear.8 mph61%29.99 "Hg10 mi
4:54 AM67 °FClear.6 mph68%29.98 "Hg10 mi
3:54 AM65 °FClear.3 mph85%29.97 "Hg10 mi
2:54 AM70 °FClear.6 mph73%29.96 "Hg10 mi
1:54 AM67 °FClear.7 mph90%29.96 "Hg10 mi
12:54 AM67 °FClear.5 mph90%29.95 "Hg10 mi
11:54 PM
Fri, Jul 29
68 °FClear.No wind87%29.95 "Hg10 mi
10:54 PM70 °FClear.No wind87%29.94 "Hg10 mi
9:54 PM70 °FMostly cloudy.No wind84%29.94 "Hg10 mi
8:54 PM70 °FOvercast.No wind84%29.93 "Hg10 mi
7:54 PM76 °FLight rain. Partly sunny.10 mph72%29.91 "Hg10 mi
6:54 PM78 °FPartly sunny.6 mph64%29.88 "Hg10 mi
Weather by CustomWeather, © 2016

See weather overviewHow to use our weather pages